Location: La Comballaz
(46.3780°N, 7.0817°E)
Time: 00:14:39
(UTC+00:00)

X-37B - Pass Details

Date: 16 December 2021
Orbit: 334 x 337 km, 45.0° (Epoch: 11 January)

Event Time Altitude Azimuth Distance (km) Brightness Sun altitude
Rises 17:05:30 0° 275° (W) 2,106 5.6 -13.1°
Reaches altitude 10° 17:07:33 10° 269° (W) 1,268 4.4 -13.4°
Maximum altitude 17:10:17 45° 195° (SSW) 466 1.2 -13.8°
Enters shadow 17:12:04 18° 127° (SE) 895 2.1 -14.1°
